This is the latest recevied weather packets stored in our database for station/object GOLDWX. If no packets are shown the sender has not sent any weather packets the latest 10 day(s).
| Time | Temp. | Humidity | Pressure | Rain* | Wind** | Luminosity | Snow |
|---|---|---|---|---|---|---|---|
| 1778011722 | 21.67° C | 23% | 1011.2 hPa | 0 mm | - | - | - |
| 1778011120 | 21.11° C | 21% | 1011.3 hPa | 0 mm | - | - | - |
| 1778010819 | 21.11° C | 22% | 1011.4 hPa | 0 mm | - | - | - |
| 1778010217 | 20.56° C | 22% | 1011.5 hPa | 0 mm | - | - | - |
| 1778009917 | 20.56° C | 24% | 1011.5 hPa | 0 mm | - | - | - |
| 1778009315 | 20° C | 24% | 1011.6 hPa | 0 mm | - | - | - |
| 1778009014 | 19.44° C | 25% | 1011.5 hPa | 0 mm | - | - | - |
| 1778008412 | 19.44° C | 25% | 1011.5 hPa | 0 mm | - | - | - |
| 1778008112 | 18.33° C | 27% | 1011.5 hPa | 0 mm | - | - | - |
| 1778007511 | 17.78° C | 27% | 1011.7 hPa | 0 mm | - | - | - |
| 1778007209 | 17.78° C | 27% | 1011.7 hPa | 0 mm | - | - | - |
| 1778006609 | 17.22° C | 29% | 1011.6 hPa | 0 mm | - | - | - |
| 1778006307 | 16.67° C | 29% | 1011.7 hPa | 0 mm | - | - | - |
| 1778005404 | 16.67° C | 29% | 1011.7 hPa | 0 mm | - | - | - |
| 1778004802 | 16.67° C | 31% | 1011.5 hPa | 0 mm | - | - | - |
| 1778004502 | 16.67° C | 31% | 1011.7 hPa | 0 mm | - | - | - |
| 1778003900 | 16.67° C | 31% | 1011.6 hPa | 0 mm | - | - | - |
| 1778003599 | 16.11° C | 32% | 1011.5 hPa | 0 mm | - | - | - |
| 1778002997 | 16.11° C | 32% | 1011.6 hPa | 0 mm | - | - | - |
| 1778002697 | 16.11° C | 33% | 1011.5 hPa | 0 mm | - | - | - |
| 1778002095 | 16.11° C | 32% | 1011.4 hPa | 0 mm | - | - | - |
| 1778001794 | 16.67° C | 33% | 1011.4 hPa | 0 mm | - | - | - |
| 1778001192 | 15.56° C | 35% | 1011.4 hPa | 0 mm | - | - | - |
| 1778000892 | 15.56° C | 34% | 1011.4 hPa | 0 mm | - | - | - |
| 1778000290 | 15.56° C | 34% | 1011.4 hPa | 0 mm | - | - | - |
* Rain since midnight (hover to see other rain measurements)
** Current wind speed in m/s (hover to see current wind gust speed)